Flag for Germany Weather past 2 weeks in Hennef (Sieg), North Rhine-Westphalia, Germany

Now
23 °F

Passing clouds.


Feels Like: 14 °F
Forecast: 17 / 36 °F
Wind: 7 mph from Northeast

Location: Bonn-Hangelar

Current Time: Dec 28, 2014 at 8:25:57 AM

Latest Report: Dec 28, 2014 at 8:00 AM


Visibility: 9 mi

Pressure: 30.10 "Hg

Humidity: 87%

Dew point: 19 °F

Location of Hennef (Sieg)Location

Historic Weather in Hennef (Sieg) — Graph

°F

Hennef (Sieg) temperature yesterday

Maximum temperature yesterday: 37 °F (at 2:00 AM)
Minimum temperature yesterday: 29 °F (at 11:00 PM)
Average temperature yesterday: 34 °F

Past Weeks' High & Low Weather Summary

 TemperatureHumidityPressure
High53 °F (Dec 18, 6:00 PM)100% (Dec 14, 12:00 AM)30.45 "Hg (Dec 14, 12:00 AM)
Low23 °F (Dec 28, 7:00 AM)76% (Dec 15, 4:00 AM)29.35 "Hg (Dec 27, 9:00 AM)
Average41 °F93%30.04 "Hg
* Reported Dec 13 7:00 AM — Dec 28 7:00 AM, Hennef (Sieg), Weather by CustomWeather, © 2014

Note: Actual official high and low records may vary slightly from our data, if they occured in-between our weather recording intervals... More about our weather records

Advertising

Hennef (Sieg) weather history for previous 24 hours

 ConditionsComfort  
Time TempWeatherWind HumidityBarometerVisibility
7:00 AM
Dec 28
23 °FPassing clouds.6 mph86%30.06 "Hg9 mi
6:00 AM24 °FPassing clouds.7 mph84%30.00 "Hg9 mi
5:00 AM25 °FOvercast.7 mph84%29.95 "Hg9 mi
4:00 AM25 °FOvercast.6 mph85%29.91 "Hg11 mi
3:00 AM26 °FClear.7 mph84%29.85 "Hg11 mi
2:00 AM27 °FOvercast.7 mph84%29.79 "Hg11 mi
1:00 AM29 °FPassing clouds.7 mph83%29.75 "Hg14 mi
12:00 AM29 °FLight snow. Ice fog.8 mph94%29.71 "Hg4 mi
11:00 PM
Dec 27
29 °FLight snow. Low clouds.7 mph99%29.67 "Hg9 mi
10:00 PM30 °FLight snow. Low clouds.7 mph100%29.62 "Hg7 mi
9:00 PM31 °FLow clouds.8 mph100%29.58 "Hg6 mi
8:00 PM30 °FLight snow. Low clouds.9 mph100%29.54 "Hg2 mi
7:00 PM31 °FHeavy rain. Low clouds.9 mph100%29.50 "Hg2 mi
6:00 PM31 °FLight snow. Low clouds.7 mph100%29.44 "Hg1 mi
5:00 PM32 °FLight snow. Low clouds.6 mph100%29.41 "Hg3 mi
4:00 PM34 °FLow clouds.7 mph97%29.38 "Hg8 mi
3:00 PM35 °FOvercast.6 mph94%29.35 "Hg31 mi
2:00 PM36 °FOvercast.7 mph90%29.35 "Hg31 mi
1:00 PM36 °FOvercast.6 mph91%29.35 "Hg31 mi
12:00 PM37 °FOvercast.6 mph89%29.35 "Hg31 mi
11:00 AM36 °FOvercast.6 mph88%29.35 "Hg25 mi
10:00 AM35 °FOvercast.6 mph91%29.35 "Hg25 mi
9:00 AM35 °FLight snow. Overcast.12 mph93%29.35 "Hg16 mi
8:00 AM34 °FLight snow. Low clouds.13 mph99%29.38 "Hg4 mi
Weather by CustomWeather, © 2014

See weather overviewHow to use our weather pages